Starlink 34675

operational
NORAD ID: 64809 Int'l Des: 2025-150 Owner: SPXS Country: US Constellation: starlink
LEOCIRCULAR

关于 Starlink 34675

正在加载描述...

实时位置

正在加载3D地球...

即将过境

高度历史

Altitude vs Time

uPlot chart will show altitude changes over time

两行轨道根数

1 64809U 25150V 26062.19048905 .00006721 00000-0 57039-3 0 9995
2 64809 70.0035 150.8314 0003419 267.7047 92.3721 14.98336321 35547
Epoch: Mar 3, 2026 • Age: 25 hours

当前状态

高度 588.7 km
速度 7.57 km/s
星下点 -49.67°S, 179.54°E
发射日期 Jul 16, 2025
运行时间 0.6 years
类型 internet

技术详情

分类 Payload
质量 575.00 kg
干质量 530.00 kg
总质量 575.00 kg
长度 0.30 m
直径 4.10 m
跨度 29.00 m
形状 Box + pan
制造商 SPXS
平台类型 Starlink V2MO
阶段状态 In Orbit
所有者/国家 SPXS/US

大型星座

Loading constellations...